Overview Statistics Trail Chart Weather Telemetry Raw packets
 

This is the latest recevied weather packets stored in our database for station/object KB1MS. If no packets are shown the sender has not sent any weather packets the latest 10 day(s).

<< 110 111 112 113 114 >>
Time Temp. Humidity Pressure Rain* Wind** Luminosity Snow
1787774996 26.67° C 60% 1016.3 hPa 0 mm - 134 W/m² -
1787774695 26.67° C 59% 1016.2 hPa 0 mm - 132 W/m² -
1787774394 27.22° C 57% 1016.4 hPa 0 mm - 119 W/m² -
1787774089 27.78° C 54% 1016.1 hPa 0 mm - 97 W/m² -
1787773788 28.33° C 53% 1016.3 hPa 0 mm - 108 W/m² -
1787773482 28.89° C 51% 1016.5 hPa 0 mm - 123 W/m² -
1787773178 28.89° C 51% 1016.6 hPa 0 mm - 581 W/m² -
1787772873 28.33° C 54% 1016.5 hPa 0 mm - 616 W/m² -
1787772573 27.78° C 53% 1016.7 hPa 0 mm - 597 W/m² -
1787772267 27.78° C 52% 1016.4 hPa 0 mm - 328 W/m² -
1787771966 27.78° C 56% 1016.6 hPa 0 mm - 638 W/m² -
1787771661 26.67° C 53% 1016.7 hPa 0 mm - 155 W/m² -
1787771361 26.67° C 56% 1016.6 hPa 0 mm - 113 W/m² -
1787771055 27.22° C 54% 1016.6 hPa 0 mm - 125 W/m² -
1787770755 27.78° C 55% 1016.7 hPa 0 mm - 145 W/m² -
1787770449 27.22° C 53% 1016.6 hPa 0 mm - 699 W/m² -
1787770148 26.11° C 56% 1016.6 hPa 0 mm - 175 W/m² -
1787769842 27.22° C 56% 1017.2 hPa 0 mm - 134 W/m² -
1787769542 28.33° C 52% 1016.9 hPa 0 mm - 137 W/m² -
1787769241 27.78° C 51% 1016.9 hPa 0 mm - 672 W/m² -
1787768941 28.33° C 51% 1016.8 hPa 0 mm - 685 W/m² -
1787768637 28.33° C 54% 1016.9 hPa 0 mm - 689 W/m² -
1787768333 28.33° C 51% 1016.9 hPa 0 mm - 694 W/m² -
1787768029 27.78° C 56% 1016.8 hPa 0 mm - 700 W/m² -
1787767728 27.78° C 54% 1016.8 hPa 0 mm - 740 W/m² -

* Rain latest hour (hover to see other rain measurements)
** Current wind speed in m/s (hover to see current wind gust speed)